Current Version              Previous Version:    01  02  03  04  05  06  07  08  09  10  11  12  13  14  15  16  17  18  19  20  21  22  23  24  25  26  27  28  29  30  
   31  32  33  34  35  36  37  38  39  40  41  42  43  44  45  46  47  48  49  50  51  52  53  54  55  56  57  58  59  60  

[Printable]
262
ASUS44 KLUB 190610
RWRTX
WEST TEXAS WEATHER ROUNDUP
NATIONAL WEATHER SERVICE LUBBOCK TX
100 AM CDT SAT APR 19 2014

NOTE: "FAIR" INDICATES FEW OR NO CLOUDS BELOW 12,000 FEET WITH NO
SIGNIFICANT WEATHER AND/OR OBSTRUCTIONS TO VISIBILITY.

TXZ004-006>008-010-012-014-016-OKZ002-190700-
TEXAS PANHANDLE/OKLAHOMA PANHANDLE

CITY           SKY/WX    TMP DP  RH WIND       PRES   REMARKS
AMARILLO       FAIR      57  42  57 S18       30.08S
BORGER         FAIR      58  44  60 S13       30.07S
CANADIAN       FAIR      57  49  75 S12G17    30.08S
DALHART        MOCLDY    58  44  60 S17       30.06R
DUMAS          FAIR      58  44  60 S15       30.06S
GUYMON         FAIR      56  45  66 S13       30.01S
HEREFORD       FAIR      55  43  65 S10       30.09S
PAMPA          FAIR      54  44  69 S21G29    30.07F
PERRYTON       FAIR      54  46  76 S15       30.05F
$$

TXZ026-029-035-045-048-190700-
SOUTHERN PANHANDLE/SOUTH PLAINS/ROLLING PLAINS

CITY           SKY/WX    TMP DP  RH WIND       PRES   REMARKS
CHILDRESS      FAIR      56  47  71 SE10      30.11F
SEMINOLE       FAIR      60  44  54 SE14      30.10F
LUBBOCK        FAIR      56  43  61 SE13      30.10S
PLAINVIEW      FAIR      55  45  68 SE10      30.10R
SNYDER         FAIR      59  44  57 SE10      30.12S
$$

TXZ052-054-060>062-072-078-127-140-154-169-190700-
PERMIAN BASIN/CONCHO VALLEY/BIG COUNTRY/EDWARDS PLATEAU

CITY           SKY/WX    TMP DP  RH WIND       PRES   REMARKS
ABILENE        FAIR      60  48  64 SE12      30.14R
BIG SPRING     FAIR      64  42  44 SE16      30.12F
BRADY          CLEAR     61  52  72 SE7       30.14S
BROWNWOOD      MOCLDY    57  50  77 SE6       30.15S
JUNCTION       FAIR      63  52  67 E5        30.14S
MIDLAND        FAIR      62  45  53 SE12      30.08F
ODESSA         FAIR      62  46  55 SE7       30.09F
SAN ANGELO     FAIR      65  48  54 SE13      30.11S
SONORA         FAIR      63  48  59 SE5       30.13S
SWEETWATER     FAIR      60  47  62 SE12      30.16S
WINK           FAIR      66  48  52 SE15      30.04S
$$

TXZ055-058-074-075-080-082-190700-
FAR WEST/SOUTHWEST MOUNTAINS/TRANS PECOS

CITY           SKY/WX    TMP DP  RH WIND       PRES   REMARKS
ALPINE         FAIR      60  48  65 S5        30.16F
DRYDEN           N/A     67  51  56 E13       30.06F
EL PASO        CLOUDY    72  40  31 SE14      30.03R
FORT STOCKTON  FAIR      63  49  60 SE21G30   30.06F
GUADALUPE PASS CLOUDY    58  46  64 NE18      30.16R
MARFA          FAIR      55  46  71 SE5       30.15R
PECOS          FAIR      65  48  54 E18G25    30.03F
PRESIDIO       FAIR      69  50  51 NE16G22   30.02S
$$

TXZ014-016-019-021>030-083-190700
TEXAS TECH WEST TEXAS MESONET/TEXAS PANHANDLE/NORTHERN SOUTH PLAINS

CITY           SKY/WX    TMP DP  RH WIND       PRES   REMARKS
ABERNATHY 5ENE   N/A     53  42  66 SE10      30.11S
AMARILLO 9NNE    N/A     58  43  56 S21       30.05S
AMARILLO 7SSE    N/A     55  42  61 S16       30.10S
AMHERST 1NE      N/A     57  42  58 SE12      30.11R
BOOTLEG 11WNW    N/A     55  43  63 S17       30.11S
CANADIAN 6E      N/A     55  48  76 SE7       30.08S
CAPROCK CYN SP   N/A     53  44  71 S8        30.11S
CHILDRESS 2NNE   N/A     54  47  78 SE10      30.11S
CLARENDON 2WSW   N/A     55  44  67 SE13      30.11S
CLAUDE 12SW      N/A     56  44  63 SE12      30.10S
DIMMITT 2NE      N/A     53  42  67 S14       30.10R
FLOYDADA 2NNE    N/A     51  41  68 SE10      30.11S
FRIONA 2NE       N/A     55  43  65 S15       30.10S
GOODLETT 3W      N/A     55  48  77 SE8       30.11S
HART 3N          N/A     52  42  71 SE9       30.10S
HEREFORD 2NW     N/A     55  43  62 S14       30.09S
MCLEAN 1E        N/A     53  48  82 SE13      30.09S
MEMPHIS 1NE      N/A     55  46  74 SE5       30.11S
MULESHOE 2SSW    N/A     56  44  61 SE12      30.10S
OLTON 6S         N/A     53  42  64 SE13      30.10S
PALO DURO SP     N/A     57  42  57 S12       30.11S
PAMPA 2E         N/A     53  46  76 SE16      30.08S
PLAINVIEW 1S     N/A     54  44  67 SE10      30.11R
SILVERTON 7ESE   N/A     54  43  66 SE14      30.11S
TULIA 2ENE       N/A     52  43  71 SE10      30.10S
TURKEY 2WSW      N/A     52  44  74 S8        30.10S
UMBARGER 3NNE    N/A     55  42  63 S14       30.10S
$$

TXZ033>036-039>041-045>048-190700
TEXAS TECH WEST TEXAS MESONET/SOUTH PLAINS

CITY           SKY/WX    TMP DP  RH WIND       PRES   REMARKS
AIKEN 3WSW       N/A     51  44  75 SE9       30.12R
ANDREWS 2NE      N/A     60  43  53 SE8       30.09F
ANTON 6SSW       N/A     55  43  63 SE9       30.11R
BROWNFIELD 2S    N/A     54  42  63 SE12      30.11S
DENVR CTY 7WNW   N/A     58  42  56 SE13      30.10S
GAIL 2ESE        N/A     58  42  57 SE10      30.10S
LAMESA 2SE       N/A     57  43  59 SE8       30.11S
LEVELLAND 4S     N/A     56  42  59 SE10      30.11R
LUBBOCK 3WNW     N/A     58  42  56 SE10      30.11R
MORTON 1ENE      N/A     55  42  60 SE12      30.11S
ODONNELL 1N      N/A     58  42  55 SE10      30.11S
PLAINS 3N        N/A     57  42  58 SE12      30.11S
RALLS 1SE        N/A     53  42  64 SE10      30.12S
REESE CENTER     N/A     57  42  56 SE15      30.10S
SEAGRAVES 1SW    N/A     55  43  63 SE8       30.11S
SEMINOLE 2NNE    N/A     60  44  55 SE15      30.09F
SLATON 2NE       N/A     53  42  64 E7        30.11S
SNYDER 3E        N/A     60  45  58 SE15      30.11S
SUNDOWN 8SW      N/A     56  42  58 SE12      30.11S
TAHOKA 3NNE      N/A     53  40  61 SE8       30.11R
WOLFFORTH 6SSW   N/A     55  41  58 SE12      30.11S
$$

TXZ031-032-036>038-042>044-190700-
TEXAS TECH WEST TEXAS MESONET/ROLLING PLAINS

CITY           SKY/WX    TMP DP  RH WIND       PRES   REMARKS
ASPERMONT 3NE    N/A     59  45  61 SE8       30.11F
FLUVANNA 3WNW    N/A     58  42  54 SE14      30.11S
GRAHAM 5SSW      N/A     57  42  56 SE13      30.11S
GUTHRIE 10WSW    N/A     54  45  70 SE9       30.10S
HASKELL 1NW      N/A     60  48  64 SE9       30.12S
JAYTON 1SSE      N/A     58  45  62 SE10      30.11S
KNOX CITY 3NW    N/A     59  47  63 SE13      30.12S
LK A HENRY 1NW   N/A     55  43  63 E3        30.10S
NORTHFIELD 1S    N/A     56  47  72 SE10      30.10S
ODELL 4ENE       N/A     59  51  76 SE10      30.13S
PADUCAH 10SW     N/A     53  46  77 SE6       30.11S
POST 1NE         N/A     55  42  60 SE5       30.10F
RRING SPRGS 3N   N/A     51  44  79 S7        30.11S
SEYMOUR 3NW      N/A     58  50  75 SE8       30.12S
SPUR 1W          N/A     55  43  63 SE5       30.10S
WEINERT 2NNE     N/A     56  47  72 SE7       30.13S
WHITE RVR 6NE    N/A     56  43  62 E8        30.11S
$$

TXZ052-054-060>062-072-078-127-140-154-169-190700-
TEXAS TECH WEST TEXAS MESONET/PERMIAN BASIN/
CONCHO VALLEY/BIG COUNTRY/EDWARDS PLATEAU

CITY           SKY/WX    TMP DP  RH WIND       PRES   REMARKS
COYANOSA 2N      N/A     65  49  54 SE16      30.05S
JUNCTION 1SSW    N/A     63  52  67 E2        30.14S
MERTZON 3NNE     N/A     62  45  53 SE6       30.13S
SAN ANGELO 7NW   N/A     62  46  55 E9        30.12S
STRLNG CT 4WSW   N/A     61  44  53 E9        30.12F
ST LAWRNCE 5SW   N/A     60  42  51 E12       30.10F
SWEETWATR 11SW   N/A     60  49  65 SE18      30.13F
WALL 1E          N/A     61  47  59 SE12      30.13R
$$

TXZ055-058-074-075-080-082-190700-
TEXAS TECH WEST TEXAS MESONET/FAR WEST/SOUTHWEST MOUNTAINS/TRANS PECOS

CITY           SKY/WX    TMP DP  RH WIND       PRES   REMARKS
PRSMN GAP BBNP   N/A     65  50  59 N14       30.06F
$$